EW4092 Weather Reports


Display with metric or nautical units.
time (UTC)temp
F
wind
direction
speed
MPH
gust
MPH
rain 1hr
in
rain 24hr
in
rain mn
in
humidity
%
barometer
mb
20260504234524 88 311 1.0 5.0 0.00 0.00 0.00 19 1005.5
20260504233027 88 120 3.0 7.0 0.00 0.00 0.00 19 1005.7
20260504231521 87 263 0.0 4.0 0.00 0.00 0.00 19 1005.7
20260504230021 88 101 2.0 4.0 0.00 0.00 0.00 19 1005.9
20260504224520 88 75 3.0 7.0 0.00 0.00 0.00 19 1006.1
20260504223015 87 219 0.0 2.0 0.00 0.00 0.00 20 1006.2
20260504221512 86 104 2.0 4.0 0.00 0.00 0.00 20 1006.4
20260504220011 86 276 0.0 5.0 0.00 0.00 0.00 19 1006.7
20260504214508 86 58 4.0 8.0 0.00 0.00 0.00 19 1006.9
20260504213011 87 89 2.0 7.0 0.00 0.00 0.00 20 1007.0
20260504211513 85 79 1.0 5.0 0.00 0.00 0.00 21 1007.2
20260504210003 86 71 1.0 6.0 0.00 0.00 0.00 19 1007.4
20260504204501 86 352 2.0 6.0 0.00 0.00 0.00 21 1007.6
20260504203134 85 112 2.0 10.0 0.00 0.00 0.00 21 1007.7
20260504201557 85 107 1.0 6.0 0.00 0.00 0.00 20 1007.8
20260504200055 84 44 0.0 4.0 0.00 0.00 0.00 21 1008.1
20260504194554 85 188 1.0 5.0 0.00 0.00 0.00 20 1008.1
20260504193052 84 108 0.0 4.0 0.00 0.00 0.00 22 1008.3
20260504191553 83 259 1.0 3.0 0.00 0.00 0.00 24 1008.5
20260504190052 84 198 0.0 3.0 0.00 0.00 0.00 22 1008.7
20260504184545 83 273 2.0 4.0 0.00 0.00 0.00 22 1008.8
20260504183041 82 350 3.0 6.0 0.00 0.00 0.00 23 1008.9
20260504181538 81 29 0.0 4.0 0.00 0.00 0.00 24 1009.0
20260504180034 79 211 1.0 3.0 0.00 0.00 0.00 26 1009.0
20260504174533 78 112 1.0 4.0 0.00 0.00 0.00 30 1009.0
20260504173027 76 95 2.0 5.0 0.00 0.00 0.00 30 1009.1
20260504171525 75 109 3.0 6.0 0.00 0.00 0.00 28 1009.3
20260504081507 58 131 0.0 0.0 0.00 0.00 0.00 64 1009.0
20260504044554 67 108 1.0 2.0 0.00 0.00 0.00 48 1009.2
20260504043057 68 65 0.0 0.0 0.00 0.00 0.00 48 1009.0
20260504041551 69 65 0.0 0.0 0.00 0.00 0.00 45 1008.8
20260504040053 71 65 0.0 0.0 0.00 0.00 0.00 40 1008.7
20260504034556 73 65 0.0 0.0 0.00 0.00 0.00 38 1008.5
20260504033050 74 65 0.0 0.0 0.00 0.00 0.00 36 1008.3
20260504031550 76 65 0.0 1.0 0.00 0.00 0.00 33 1008.2
20260504030048 78 65 0.0 0.0 0.00 0.00 0.00 31 1008.1
20260504024552 81 65 0.0 2.0 0.00 0.00 0.00 28 1008.0
20260504023047 83 65 0.0 3.0 0.00 0.00 0.00 26 1008.0
20260504021552 84 52 2.0 5.0 0.00 0.00 0.00 24 1008.0
20260504020045 85 75 0.0 6.0 0.00 0.00 0.00 22 1008.1
20260504014544 86 41 2.0 5.0 0.00 0.00 0.00 22 1008.2
20260504013056 86 75 0.0 4.0 0.00 0.00 0.00 21 1008.3
20260504011543 87 84 1.0 3.0 0.00 0.00 0.00 20 1008.4
20260504010042 86 60 1.0 3.0 0.00 0.00 0.00 19 1008.6
20260504004538 85 113 0.0 5.0 0.00 0.00 0.00 20 1008.8
20260504003036 86 335 0.0 4.0 0.00 0.00 0.00 20 1009.0
20260504001538 86 250 2.0 5.0 0.00 0.00 0.00 20 1009.2
20260504000033 86 5 1.0 5.0 0.00 0.00 0.00 21 1009.3